QPF
0.00 0.00 0.00 0.00 0.00 0.00 0.00 0.00 0.00 0.00 0.00 0.00 0.00 0.00 0.00 0.00 0.01 0.01 0.01 0.00 0.00 0.00 0.00 0.00 0.01 0.01 0.03 0.04 0.03 0.03 0.03 0.03 0.03 0.04 0.05 0.05 0.05 0.06 0.06 0.07 0.06 0.06 0.07 0.06
0.00 0.00 0.00 0.00 0.00 0.00 0.00 0.00 0.00 0.00 0.00 0.00 0.00 0.00 0.00 0.00 0.01 0.01 0.01 0.00 0.00 0.00 0.00 0.01 0.01 0.02 0.02 0.02 0.02 0.03 0.04 0.04 0.03 0.03 0.05 0.06 0.04 0.05 0.06 0.07 0.07 0.07 0.09 0.08
0.00 0.00 0.00 0.00 0.00 0.00 0.00 0.00 0.00 0.00 0.00 0.00 0.00 0.00 0.00 0.01 0.01 0.01 0.01 0.01 0.01 0.00 0.01 0.02 0.03 0.02 0.02 0.01 0.01 0.02 0.03 0.04 0.04 0.03 0.03 0.04 0.03 0.03 0.05 0.07 0.09 0.08 0.07 0.08
0.00 0.00 0.00 0.00 0.00 0.00 0.00 0.00 0.00 0.00 0.00 0.00 0.00 0.00 0.00 0.01 0.02 0.02 0.01 0.01 0.01 0.01 0.01 0.02 0.03 0.03 0.02 0.02 0.02 0.02 0.02 0.03 0.03 0.03 0.03 0.03 0.02 0.03 0.04 0.06 0.07 0.07 0.05 0.05
0.00 0.00 0.00 0.00 0.00 0.00 0.00 0.00 0.00 0.00 0.00 0.00 0.00 0.00 0.00 0.01 0.01 0.02 0.01 0.01 0.01 0.01 0.01 0.02 0.02 0.02 0.02 0.02 0.03 0.03 0.02 0.02 0.02 0.02 0.02 0.03 0.03 0.02 0.02 0.03 0.03 0.03 0.03 0.05
0.00 0.00 0.00 0.00 0.00 0.00 0.00 0.01 0.00 0.00 0.00 0.01 0.01 0.01 0.01 0.01 0.01 0.01 0.01 0.01 0.01 0.01 0.01 0.02 0.02 0.01 0.01 0.02 0.04 0.04 0.03 0.03 0.03 0.02 0.02 0.03 0.04 0.03 0.03 0.02 0.02 0.01 0.03 0.04
0.00 0.00 0.00 0.00 0.00 0.00 0.01 0.01 0.00 0.00 0.00 0.00 0.01 0.01 0.01 0.01 0.01 0.01 0.01 0.01 0.02 0.02 0.01 0.01 0.01 0.01 0.01 0.02 0.04 0.04 0.04 0.03 0.03 0.03 0.03 0.02 0.03 0.02 0.02 0.02 0.02 0.02 0.02 0.02
0.00 0.00 0.00 0.00 0.00 0.00 0.00 0.00 0.00 0.00 0.00 0.01 0.01 0.01 0.01 0.01 0.01 0.01 0.01 0.01 0.02 0.01 0.02 0.01 0.01 0.01 0.02 0.02 0.03 0.04 0.03 0.03 0.02 0.02 0.02 0.02 0.02 0.02 0.02 0.02 0.02 0.02 0.02 0.01
0.00 0.00 0.00 0.00 0.00 0.00 0.00 0.01 0.00 0.00 0.01 0.01 0.01 0.01 0.01 0.01 0.01 0.00 0.01 0.01 0.01 0.01 0.02 0.02 0.01 0.02 0.03 0.03 0.04 0.04 0.03 0.02 0.01 0.01 0.02 0.02 0.02 0.01 0.02 0.02 0.02 0.02 0.02 0.02
0.00 0.00 0.00 0.00 0.00 0.00 0.01 0.01 0.01 0.01 0.01 0.01 0.01 0.02 0.02 0.02 0.02 0.01 0.02 0.02 0.02 0.03 0.03 0.02 0.02 0.02 0.02 0.02 0.03 0.03 0.02 0.01 0.01 0.01 0.02 0.02 0.02 0.02 0.02 0.01 0.01 0.02 0.02 0.02
0.01 0.01 0.00 0.00 0.00 0.00 0.01 0.01 0.01 0.01 0.01 0.01 0.02 0.02 0.02 0.02 0.03 0.03 0.02 0.03 0.04 0.04 0.05 0.04 0.05 0.05 0.05 0.04 0.03 0.03 0.03 0.02 0.02 0.01 0.02 0.03 0.03 0.02 0.01 0.01 0.01 0.01 0.02 0.02
0.01 0.00 0.00 0.01 0.00 0.00 0.01 0.01 0.01 0.01 0.01 0.02 0.02 0.02 0.03 0.02 0.02 0.02 0.02 0.03 0.05 0.06 0.07 0.07 0.07 0.07 0.07 0.06 0.05 0.04 0.03 0.02 0.02 0.02 0.03 0.03 0.03 0.03 0.03 0.02 0.03 0.03 0.04 0.05
0.00 0.00 0.00 0.00 0.00 0.00 0.00 0.01 0.01 0.02 0.02 0.02 0.03 0.03 0.02 0.01 0.01 0.02 0.02 0.02 0.04 0.07 0.07 0.07 0.07 0.08 0.07 0.06 0.05 0.04 0.03 0.02 0.03 0.04 0.04 0.04 0.04 0.03 0.03 0.03 0.04 0.06 0.07 0.08
0.00 0.00 0.00 0.01 0.01 0.01 0.01 0.01 0.02 0.02 0.03 0.03 0.02 0.01 0.01 0.01 0.02 0.02 0.02 0.03 0.03 0.05 0.07 0.06 0.07 0.09 0.10 0.07 0.06 0.06 0.04 0.03 0.04 0.06 0.05 0.03 0.03 0.03 0.02 0.03 0.05 0.07 0.06 0.06
0.00 0.01 0.01 0.01 0.01 0.01 0.01 0.01 0.01 0.02 0.01 0.02 0.02 0.02 0.02 0.02 0.03 0.03 0.03 0.04 0.04 0.05 0.07 0.09 0.10 0.12 0.14 0.11 0.09 0.09 0.06 0.04 0.03 0.03 0.03 0.02 0.02 0.01 0.01 0.03 0.05 0.06 0.05 0.04
0.01 0.01 0.02 0.01 0.01 0.01 0.01 0.01 0.01 0.02 0.01 0.01 0.02 0.02 0.02 0.02 0.02 0.04 0.04 0.04 0.05 0.06 0.06 0.06 0.07 0.11 0.12 0.11 0.09 0.07 0.07 0.05 0.03 0.02 0.01 0.01 0.01 0.01 0.02 0.02 0.02 0.03 0.04 0.04
0.02 0.03 0.04 0.03 0.03 0.02 0.02 0.02 0.03 0.03 0.02 0.01 0.01 0.02 0.03 0.02 0.04 0.05 0.06 0.07 0.07 0.07 0.06 0.05 0.06 0.09 0.09 0.08 0.07 0.06 0.06 0.04 0.02 0.03 0.03 0.02 0.02 0.02 0.02 0.02 0.02 0.02 0.02 0.03
0.06 0.06 0.04 0.03 0.02 0.02 0.03 0.03 0.04 0.03 0.03 0.02 0.02 0.02 0.02 0.03 0.04 0.04 0.04 0.05 0.06 0.05 0.03 0.02 0.03 0.04 0.04 0.03 0.04 0.03 0.03 0.02 0.02 0.02 0.03 0.03 0.04 0.03 0.03 0.03 0.03 0.03 0.03 0.04
0.06 0.04 0.03 0.02 0.02 0.02 0.03 0.04 0.04 0.04 0.04 0.04 0.04 0.03 0.03 0.03 0.03 0.02 0.02 0.03 0.04 0.03 0.02 0.01 0.02 0.01 0.01 0.02 0.02 0.02 0.02 0.02 0.02 0.02 0.02 0.02 0.02 0.02 0.03 0.03 0.02 0.03 0.04 0.04
0.03 0.02 0.01 0.01 0.01 0.01 0.03 0.05 0.04 0.04 0.04 0.05 0.05 0.05 0.04 0.03 0.02 0.02 0.02 0.03 0.04 0.03 0.01 0.01 0.01 0.01 0.01 0.01 0.01 0.01 0.01 0.01 0.01 0.01 0.01 0.01 0.01 0.02 0.02 0.02 0.02 0.02 0.02 0.02
0.02 0.01 0.01 0.01 0.01 0.01 0.02 0.04 0.04 0.04 0.04 0.03 0.02 0.02 0.02 0.02 0.02 0.02 0.02 0.03 0.04 0.05 0.02 0.01 0.01 0.01 0.01 0.01 0.02 0.01 0.01 0.01 0.01 0.01 0.02 0.02 0.02 0.02 0.02 0.02 0.02 0.02 0.02 0.02
0.03 0.01 0.01 0.01 0.01 0.01 0.02 0.03 0.04 0.04 0.03 0.02 0.03 0.03 0.03 0.03 0.03 0.02 0.02 0.03 0.04 0.04 0.03 0.02 0.02 0.02 0.02 0.02 0.01 0.01 0.01 0.01 0.01 0.01 0.02 0.02 0.02 0.03 0.05 0.05 0.04 0.03 0.03 0.02
0.02 0.01 0.01 0.01 0.01 0.02 0.02 0.02 0.04 0.05 0.05 0.04 0.04 0.04 0.05 0.03 0.03 0.03 0.02 0.02 0.02 0.03 0.02 0.01 0.01 0.02 0.02 0.02 0.02 0.01 0.02 0.02 0.02 0.01 0.01 0.01 0.02 0.02 0.03 0.04 0.03 0.03 0.02 0.01
0.01 0.01 0.01 0.01 0.01 0.01 0.02 0.02 0.03 0.05 0.05 0.05 0.05 0.05 0.06 0.04 0.02 0.02 0.03 0.05 0.03 0.02 0.02 0.02 0.02 0.01 0.01 0.01 0.01 0.01 0.01 0.02 0.02 0.01 0.01 0.01 0.01 0.01 0.01 0.01 0.01 0.01 0.01 0.00
0.01 0.02 0.01 0.02 0.02 0.02 0.02 0.02 0.03 0.04 0.05 0.05 0.05 0.04 0.05 0.04 0.03 0.02 0.02 0.04 0.03 0.02 0.02 0.02 0.01 0.01 0.01 0.01 0.01 0.01 0.00 0.01 0.02 0.01 0.01 0.00 0.00 0.00 0.00 0.01 0.01 0.00 0.00 0.00
0.02 0.03 0.03 0.03 0.02 0.02 0.03 0.03 0.04 0.05 0.05 0.05 0.05 0.04 0.04 0.03 0.03 0.02 0.02 0.03 0.03 0.03 0.02 0.01 0.01 0.01 0.01 0.01 0.01 0.01 0.00 0.01 0.01 0.01 0.00 0.00 0.00 0.01 0.01 0.01 0.01 0.01 0.00 0.00
0.01 0.02 0.03 0.03 0.03 0.03 0.04 0.04 0.05 0.04 0.04 0.03 0.03 0.03 0.03 0.02 0.02 0.02 0.02 0.02 0.02 0.02 0.02 0.01 0.01 0.01 0.01 0.01 0.01 0.01 0.01 0.01 0.01 0.01 0.01 0.01 0.01 0.01 0.01 0.01 0.01 0.01 0.01 0.00
MSLP
1011.49 1011.78 1012.07 1012.35 1012.66 1013.02 1013.44 1013.95 1014.53 1015.19 1015.92 1016.69 1017.50 1018.33 1019.17 1019.99 1020.79 1021.56 1022.29 1022.96 1023.57 1024.09 1024.54 1024.89 1025.17 1025.38 1025.54 1025.67 1025.79 1025.91 1026.06 1026.23 1026.42 1026.63 1026.84 1027.02 1027.16 1027.26 1027.29 1027.28 1027.21 1027.11 1027.00 1026.88
1011.65 1011.94 1012.18 1012.38 1012.60 1012.85 1013.17 1013.58 1014.09 1014.71 1015.43 1016.22 1017.07 1017.96 1018.85 1019.73 1020.58 1021.39 1022.15 1022.85 1023.48 1024.04 1024.52 1024.93 1025.28 1025.57 1025.81 1026.01 1026.20 1026.39 1026.58 1026.79 1027.01 1027.23 1027.45 1027.65 1027.82 1027.94 1028.01 1028.02 1027.99 1027.92 1027.82 1027.72
1011.89 1012.16 1012.35 1012.48 1012.60 1012.75 1012.96 1013.28 1013.72 1014.29 1014.98 1015.78 1016.65 1017.58 1018.51 1019.44 1020.34 1021.19 1021.99 1022.72 1023.39 1023.99 1024.52 1025.00 1025.41 1025.78 1026.09 1026.37 1026.62 1026.86 1027.09 1027.32 1027.55 1027.78 1028.00 1028.20 1028.38 1028.52 1028.62 1028.67 1028.67 1028.62 1028.55 1028.45
1012.16 1012.39 1012.52 1012.58 1012.60 1012.65 1012.77 1013.01 1013.38 1013.90 1014.57 1015.37 1016.26 1017.22 1018.20 1019.17 1020.11 1021.01 1021.85 1022.62 1023.33 1023.98 1024.57 1025.11 1025.59 1026.02 1026.40 1026.73 1027.04 1027.31 1027.56 1027.79 1028.02 1028.24 1028.46 1028.66 1028.84 1028.99 1029.11 1029.18 1029.20 1029.19 1029.13 1029.05
1012.37 1012.56 1012.62 1012.60 1012.54 1012.51 1012.56 1012.73 1013.05 1013.55 1014.21 1015.02 1015.93 1016.92 1017.94 1018.96 1019.95 1020.89 1021.77 1022.58 1023.33 1024.03 1024.67 1025.25 1025.79 1026.27 1026.70 1027.08 1027.41 1027.71 1027.97 1028.20 1028.42 1028.63 1028.83 1029.02 1029.20 1029.35 1029.48 1029.57 1029.61 1029.62 1029.59 1029.52
1012.51 1012.63 1012.62 1012.53 1012.40 1012.31 1012.31 1012.45 1012.75 1013.25 1013.92 1014.75 1015.70 1016.73 1017.79 1018.85 1019.88 1020.85 1021.76 1022.60 1023.39 1024.11 1024.78 1025.40 1025.97 1026.49 1026.96 1027.37 1027.72 1028.03 1028.30 1028.53 1028.74 1028.94 1029.12 1029.30 1029.47 1029.62 1029.75 1029.85 1029.92 1029.95 1029.94 1029.89
1012.55 1012.60 1012.52 1012.37 1012.20 1012.08 1012.06 1012.20 1012.53 1013.05 1013.75 1014.62 1015.61 1016.68 1017.77 1018.86 1019.90 1020.89 1021.81 1022.67 1023.46 1024.19 1024.88 1025.51 1026.10 1026.65 1027.13 1027.57 1027.94 1028.26 1028.53 1028.77 1028.97 1029.16 1029.33 1029.50 1029.66 1029.82 1029.95 1030.07 1030.15 1030.21 1030.23 1030.22
1012.51 1012.49 1012.36 1012.18 1011.99 1011.87 1011.88 1012.06 1012.43 1013.00 1013.76 1014.67 1015.70 1016.79 1017.90 1018.99 1020.03 1021.01 1021.91 1022.74 1023.52 1024.24 1024.91 1025.55 1026.14 1026.69 1027.20 1027.65 1028.04 1028.38 1028.67 1028.91 1029.12 1029.31 1029.48 1029.64 1029.80 1029.95 1030.09 1030.23 1030.34 1030.42 1030.48 1030.51
1012.44 1012.37 1012.21 1012.02 1011.85 1011.77 1011.84 1012.08 1012.52 1013.16 1013.97 1014.93 1015.98 1017.08 1018.17 1019.23 1020.24 1021.17 1022.02 1022.81 1023.53 1024.22 1024.87 1025.49 1026.08 1026.64 1027.16 1027.63 1028.05 1028.41 1028.72 1028.98 1029.20 1029.39 1029.56 1029.72 1029.87 1030.03 1030.18 1030.33 1030.47 1030.59 1030.70 1030.78
1012.41 1012.31 1012.14 1011.96 1011.84 1011.83 1011.98 1012.31 1012.84 1013.55 1014.41 1015.39 1016.45 1017.52 1018.57 1019.57 1020.50 1021.35 1022.12 1022.83 1023.50 1024.13 1024.74 1025.34 1025.93 1026.49 1027.03 1027.53 1027.97 1028.36 1028.69 1028.97 1029.20 1029.40 1029.56 1029.72 1029.87 1030.03 1030.19 1030.36 1030.53 1030.70 1030.86 1031.01
1012.48 1012.36 1012.21 1012.07 1012.02 1012.10 1012.34 1012.77 1013.38 1014.14 1015.04 1016.03 1017.06 1018.07 1019.05 1019.96 1020.78 1021.53 1022.21 1022.83 1023.42 1024.00 1024.57 1025.15 1025.73 1026.30 1026.86 1027.38 1027.86 1028.27 1028.62 1028.92 1029.15 1029.34 1029.50 1029.64 1029.79 1029.94 1030.11 1030.29 1030.49 1030.71 1030.93 1031.14
1012.69 1012.57 1012.44 1012.37 1012.40 1012.57 1012.90 1013.41 1014.09 1014.90 1015.80 1016.77 1017.74 1018.68 1019.55 1020.35 1021.05 1021.69 1022.26 1022.80 1023.32 1023.84 1024.39 1024.95 1025.53 1026.12 1026.70 1027.24 1027.74 1028.17 1028.53 1028.82 1029.04 1029.22 1029.36 1029.47 1029.59 1029.73 1029.89 1030.08 1030.31 1030.57 1030.83 1031.11
1013.04 1012.93 1012.84 1012.82 1012.92 1013.17 1013.59 1014.16 1014.88 1015.70 1016.59 1017.51 1018.40 1019.24 1020.01 1020.68 1021.28 1021.80 1022.28 1022.74 1023.21 1023.70 1024.22 1024.78 1025.37 1025.97 1026.57 1027.13 1027.63 1028.06 1028.42 1028.69 1028.89 1029.03 1029.12 1029.20 1029.29 1029.39 1029.54 1029.73 1029.97 1030.25 1030.56 1030.88
1013.52 1013.41 1013.35 1013.37 1013.53 1013.84 1014.31 1014.92 1015.65 1016.46 1017.31 1018.16 1018.96 1019.70 1020.36 1020.93 1021.42 1021.86 1022.26 1022.67 1023.10 1023.57 1024.09 1024.66 1025.26 1025.87 1026.47 1027.03 1027.53 1027.95 1028.28 1028.52 1028.68 1028.76 1028.81 1028.84 1028.88 1028.95 1029.07 1029.25 1029.48 1029.78 1030.11 1030.46
1014.08 1013.97 1013.91 1013.97 1014.15 1014.49 1014.98 1015.59 1016.30 1017.08 1017.87 1018.64 1019.35 1020.00 1020.56 1021.04 1021.45 1021.83 1022.20 1022.58 1022.99 1023.47 1023.99 1024.57 1025.17 1025.79 1026.39 1026.94 1027.42 1027.81 1028.10 1028.29 1028.40 1028.43 1028.42 1028.40 1028.39 1028.42 1028.51 1028.66 1028.89 1029.18 1029.52 1029.87
1014.67 1014.54 1014.49 1014.54 1014.73 1015.07 1015.54 1016.13 1016.79 1017.51 1018.22 1018.91 1019.54 1020.10 1020.58 1021.00 1021.37 1021.72 1022.07 1022.45 1022.87 1023.35 1023.89 1024.47 1025.08 1025.69 1026.27 1026.80 1027.25 1027.60 1027.84 1027.99 1028.05 1028.03 1027.98 1027.91 1027.86 1027.86 1027.91 1028.04 1028.25 1028.52 1028.84 1029.19
1015.25 1015.10 1015.02 1015.06 1015.23 1015.54 1015.97 1016.50 1017.10 1017.74 1018.37 1018.98 1019.54 1020.03 1020.46 1020.84 1021.19 1021.53 1021.88 1022.28 1022.72 1023.21 1023.76 1024.34 1024.94 1025.53 1026.09 1026.58 1026.98 1027.29 1027.50 1027.60 1027.63 1027.58 1027.50 1027.41 1027.33 1027.31 1027.34 1027.44 1027.62 1027.87 1028.16 1028.48
1015.79 1015.61 1015.51 1015.52 1015.65 1015.91 1016.28 1016.74 1017.26 1017.81 1018.36 1018.89 1019.38 1019.83 1020.22 1020.59 1020.93 1021.28 1021.66 1022.07 1022.53 1023.03 1023.58 1024.15 1024.73 1025.29 1025.80 1026.25 1026.62 1026.89 1027.06 1027.14 1027.15 1027.09 1027.01 1026.91 1026.84 1026.80 1026.82 1026.91 1027.06 1027.27 1027.52 1027.80
1016.27 1016.07 1015.95 1015.92 1016.01 1016.21 1016.51 1016.89 1017.32 1017.79 1018.26 1018.72 1019.15 1019.55 1019.93 1020.29 1020.65 1021.02 1021.41 1021.84 1022.31 1022.82 1023.35 1023.90 1024.44 1024.96 1025.43 1025.83 1026.16 1026.39 1026.55 1026.62 1026.63 1026.59 1026.52 1026.44 1026.39 1026.36 1026.38 1026.45 1026.58 1026.74 1026.95 1027.16
1016.68 1016.48 1016.34 1016.29 1016.33 1016.47 1016.70 1017.00 1017.34 1017.72 1018.12 1018.51 1018.90 1019.28 1019.64 1020.01 1020.38 1020.76 1021.18 1021.62 1022.09 1022.59 1023.10 1023.61 1024.11 1024.57 1024.99 1025.35 1025.64 1025.85 1025.99 1026.07 1026.10 1026.09 1026.05 1026.01 1025.98 1025.97 1026.00 1026.06 1026.15 1026.28 1026.42 1026.58
1017.04 1016.85 1016.70 1016.63 1016.63 1016.72 1016.87 1017.09 1017.36 1017.67 1017.99 1018.33 1018.68 1019.03 1019.39 1019.76 1020.14 1020.55 1020.97 1021.42 1021.89 1022.37 1022.85 1023.32 1023.76 1024.18 1024.54 1024.86 1025.11 1025.31 1025.45 1025.54 1025.59 1025.61 1025.61 1025.60 1025.60 1025.61 1025.64 1025.69 1025.75 1025.83 1025.91 1025.99
1017.34 1017.15 1017.01 1016.92 1016.89 1016.93 1017.02 1017.18 1017.37 1017.61 1017.88 1018.18 1018.49 1018.83 1019.18 1019.56 1019.95 1020.37 1020.81 1021.26 1021.71 1022.17 1022.62 1023.05 1023.45 1023.81 1024.13 1024.40 1024.62 1024.80 1024.93 1025.03 1025.10 1025.14 1025.18 1025.20 1025.22 1025.24 1025.26 1025.29 1025.32 1025.34 1025.36 1025.37
1017.55 1017.38 1017.24 1017.13 1017.08 1017.07 1017.12 1017.21 1017.36 1017.54 1017.76 1018.02 1018.31 1018.64 1019.00 1019.38 1019.79 1020.22 1020.66 1021.11 1021.56 1022.00 1022.42 1022.81 1023.17 1023.49 1023.77 1024.00 1024.20 1024.35 1024.48 1024.57 1024.64 1024.70 1024.74 1024.77 1024.80 1024.81 1024.82 1024.82 1024.81 1024.79 1024.74 1024.68
1017.65 1017.49 1017.35 1017.23 1017.15 1017.11 1017.11 1017.16 1017.26 1017.40 1017.59 1017.83 1018.11 1018.43 1018.79 1019.19 1019.61 1020.05 1020.50 1020.96 1021.41 1021.83 1022.24 1022.60 1022.93 1023.22 1023.46 1023.66 1023.83 1023.96 1024.06 1024.14 1024.20 1024.25 1024.29 1024.31 1024.32 1024.31 1024.30 1024.26 1024.21 1024.14 1024.04 1023.92
1017.62 1017.46 1017.30 1017.17 1017.07 1017.00 1016.98 1016.99 1017.06 1017.17 1017.34 1017.57 1017.84 1018.17 1018.54 1018.95 1019.38 1019.84 1020.31 1020.77 1021.22 1021.64 1022.03 1022.39 1022.69 1022.95 1023.17 1023.35 1023.48 1023.59 1023.67 1023.72 1023.76 1023.78 1023.79 1023.78 1023.76 1023.73 1023.68 1023.61 1023.52 1023.41 1023.27 1023.10
1017.45 1017.28 1017.11 1016.96 1016.84 1016.75 1016.70 1016.70 1016.75 1016.85 1017.01 1017.23 1017.51 1017.85 1018.23 1018.65 1019.10 1019.57 1020.05 1020.52 1020.97 1021.39 1021.78 1022.12 1022.42 1022.66 1022.86 1023.01 1023.12 1023.20 1023.25 1023.27 1023.27 1023.25 1023.22 1023.18 1023.13 1023.06 1022.98 1022.88 1022.76 1022.63 1022.46 1022.27
1017.17 1016.97 1016.78 1016.62 1016.48 1016.38 1016.32 1016.32 1016.36 1016.47 1016.63 1016.86 1017.15 1017.49 1017.88 1018.32 1018.77 1019.25 1019.73 1020.20 1020.65 1021.07 1021.45 1021.78 1022.06 1022.30 1022.48 1022.61 1022.70 1022.75 1022.77 1022.75 1022.72 1022.66 1022.59 1022.51 1022.42 1022.32 1022.22 1022.10 1021.96 1021.81 1021.64 1021.45
Thickness
5759 5766 5768 5766 5766 5769 5769 5774 5772 5776 5778 5784 5788 5791 5792 5794 5795 5795 5795 5795 5795 5793 5792 5792 5791 5789 5786 5782 5779 5777 5772 5768 5765 5763 5761 5759 5756 5753 5751 5747 5745 5742 5740 5738
5744 5755 5759 5757 5763 5766 5767 5771 5773 5776 5776 5789 5791 5792 5788 5788 5789 5788 5790 5790 5790 5788 5787 5786 5785 5783 5781 5777 5774 5771 5767 5763 5761 5759 5756 5753 5751 5749 5746 5743 5740 5737 5735 5732
5735 5745 5745 5740 5758 5762 5764 5770 5771 5767 5775 5782 5780 5780 5781 5783 5784 5784 5786 5785 5784 5783 5781 5780 5780 5778 5775 5773 5770 5766 5761 5758 5756 5754 5751 5748 5746 5744 5741 5739 5735 5731 5729 5727
5734 5727 5715 5748 5767 5767 5763 5766 5771 5771 5774 5776 5776 5778 5780 5782 5781 5780 5781 5780 5779 5778 5777 5776 5775 5773 5771 5769 5765 5761 5756 5753 5751 5749 5746 5744 5742 5739 5736 5734 5731 5727 5724 5721
5727 5722 5728 5740 5753 5758 5754 5755 5767 5766 5767 5771 5773 5772 5772 5776 5777 5776 5777 5776 5774 5774 5773 5770 5769 5767 5765 5762 5758 5754 5751 5747 5746 5744 5741 5739 5736 5734 5732 5729 5726 5723 5720 5716
5719 5716 5716 5737 5752 5758 5752 5743 5763 5763 5761 5764 5765 5760 5763 5767 5769 5770 5770 5769 5768 5768 5767 5763 5761 5761 5757 5754 5750 5746 5744 5742 5741 5739 5736 5734 5731 5728 5726 5724 5721 5718 5714 5711
5713 5714 5727 5739 5746 5746 5729 5737 5755 5759 5758 5759 5758 5759 5760 5762 5761 5761 5761 5761 5761 5759 5758 5755 5755 5753 5749 5745 5741 5739 5738 5736 5735 5733 5731 5728 5725 5723 5721 5719 5716 5712 5708 5705
5709 5708 5714 5731 5736 5732 5733 5743 5748 5751 5752 5752 5752 5752 5752 5752 5752 5752 5752 5752 5752 5750 5748 5747 5747 5745 5740 5736 5734 5733 5732 5729 5727 5726 5725 5722 5719 5716 5714 5712 5709 5705 5701 5698
5708 5709 5715 5724 5726 5729 5733 5735 5739 5743 5745 5745 5743 5743 5743 5742 5743 5743 5743 5743 5744 5742 5739 5737 5736 5735 5732 5729 5728 5726 5724 5722 5720 5718 5716 5715 5712 5709 5707 5705 5704 5701 5698 5693
5696 5703 5708 5713 5718 5722 5726 5729 5733 5736 5737 5737 5734 5735 5734 5734 5733 5733 5733 5733 5734 5732 5729 5727 5726 5726 5723 5721 5721 5719 5716 5714 5712 5710 5708 5706 5704 5702 5700 5698 5697 5694 5691 5687
5686 5693 5698 5703 5708 5713 5717 5721 5723 5726 5728 5728 5727 5726 5727 5725 5724 5724 5723 5724 5724 5722 5719 5717 5716 5714 5712 5712 5712 5710 5707 5705 5703 5701 5699 5694 5691 5689 5688 5684 5683 5683 5682 5679
5681 5686 5691 5693 5699 5704 5706 5709 5712 5714 5716 5719 5720 5719 5719 5717 5716 5715 5714 5714 5713 5712 5710 5707 5705 5704 5703 5702 5702 5701 5699 5696 5695 5692 5689 5686 5682 5677 5670 5670 5668 5666 5665 5664
5673 5679 5683 5685 5691 5696 5697 5700 5703 5705 5707 5708 5709 5710 5709 5708 5707 5706 5705 5704 5703 5702 5700 5697 5695 5694 5693 5693 5693 5692 5690 5688 5687 5684 5681 5678 5676 5672 5667 5659 5655 5653 5652 5650
5664 5668 5670 5676 5680 5686 5689 5691 5694 5696 5697 5698 5699 5700 5699 5698 5697 5696 5695 5695 5694 5693 5690 5689 5687 5686 5685 5685 5683 5682 5681 5678 5677 5675 5673 5671 5669 5666 5663 5659 5653 5647 5641 5638
5656 5661 5664 5668 5671 5675 5678 5681 5683 5684 5685 5686 5688 5689 5689 5688 5686 5686 5686 5686 5685 5683 5682 5680 5678 5677 5676 5675 5674 5673 5673 5671 5669 5668 5666 5663 5661 5658 5655 5651 5646 5641 5637 5630
5646 5652 5655 5657 5660 5663 5667 5670 5672 5674 5676 5676 5677 5678 5678 5679 5677 5676 5676 5676 5675 5673 5672 5671 5669 5667 5666 5666 5665 5664 5663 5660 5660 5659 5657 5654 5652 5649 5645 5642 5638 5634 5630 5626
5635 5639 5644 5647 5650 5654 5657 5661 5663 5665 5666 5667 5667 5668 5668 5668 5667 5666 5666 5666 5665 5664 5663 5662 5660 5659 5658 5658 5658 5657 5655 5652 5650 5650 5648 5646 5643 5640 5636 5633 5629 5625 5621 5616
5630 5633 5637 5639 5642 5645 5647 5650 5653 5654 5655 5657 5658 5659 5658 5658 5657 5657 5656 5656 5656 5655 5654 5653 5652 5651 5650 5649 5648 5648 5646 5645 5643 5641 5639 5636 5634 5631 5628 5624 5621 5617 5612 5608
5622 5626 5629 5632 5635 5637 5639 5641 5643 5645 5646 5648 5648 5648 5648 5649 5649 5648 5648 5647 5647 5645 5644 5644 5642 5643 5642 5640 5639 5638 5638 5637 5635 5632 5629 5624 5624 5622 5619 5616 5613 5610 5606 5602
5614 5618 5621 5624 5627 5629 5630 5632 5634 5635 5637 5638 5638 5638 5638 5639 5639 5639 5638 5638 5638 5638 5636 5635 5636 5636 5634 5632 5631 5632 5631 5629 5627 5623 5620 5618 5616 5613 5610 5608 5605 5602 5599 5595
5606 5610 5613 5616 5618 5620 5623 5625 5626 5627 5628 5630 5629 5629 5629 5630 5631 5631 5631 5630 5629 5628 5628 5626 5628 5628 5626 5625 5623 5624 5623 5621 5618 5616 5613 5611 5608 5605 5603 5600 5597 5594 5590 5587
5599 5603 5605 5608 5611 5613 5615 5617 5619 5620 5621 5621 5622 5622 5621 5622 5623 5623 5622 5622 5621 5618 5620 5621 5620 5617 5617 5616 5616 5615 5614 5612 5610 5608 5605 5603 5600 5597 5594 5591 5588 5585 5581 5578
5593 5595 5598 5601 5604 5606 5608 5610 5612 5613 5613 5613 5614 5614 5616 5617 5618 5618 5615 5614 5613 5610 5611 5611 5608 5605 5605 5608 5608 5607 5605 5604 5602 5599 5597 5594 5592 5589 5586 5583 5580 5576 5573 5570
5586 5589 5592 5595 5597 5599 5600 5603 5604 5605 5606 5605 5605 5606 5608 5610 5610 5611 5609 5604 5603 5602 5602 5598 5596 5596 5596 5600 5599 5598 5597 5595 5593 5591 5589 5586 5584 5582 5578 5575 5572 5569 5565 5561
5581 5583 5586 5588 5590 5592 5593 5595 5596 5597 5598 5598 5599 5599 5601 5602 5602 5601 5600 5598 5594 5594 5593 5588 5586 5587 5590 5591 5591 5590 5588 5586 5585 5583 5581 5579 5577 5574 5571 5567 5564 5560 5557 5554
5577 5579 5581 5583 5586 5586 5588 5589 5590 5591 5592 5591 5591 5592 5593 5593 5592 5592 5591 5590 5588 5586 5586 5584 5582 5581 5584 5584 5583 5582 5580 5578 5576 5574 5573 5570 5568 5565 5562 5559 5556 5553 5549 5546
5572 5574 5575 5578 5579 5581 5582 5583 5584 5585 5585 5584 5584 5585 5585 5585 5584 5584 5583 5582 5581 5580 5579 5578 5578 5578 5577 5577 5575 5574 5572 5570 5568 5566 5564 5562 5559 5557 5554 5551 5548 5545 5541 5538